GFSCGP_sfc_rhum_159.txt.gz
RH
45 50 52 42 42 36 31 40 41 40 36 35 34 38 36 33 34 35 31 28 28 27 30 46 60 66 69 70 70 69 68 63 61 69 88 94 94 92 90 87 87 84 88 92
51 56 45 44 45 43 44 43 43 42 40 41 41 42 34 31 31 28 26 26 27 31 51 65 70 70 68 69 75 76 75 74 65 73 80 84 89 91 87 87 84 86 86 89
46 46 44 44 51 51 49 47 47 42 43 42 41 40 35 27 30 30 28 30 28 30 48 73 75 73 77 76 80 79 79 78 66 70 79 85 85 88 92 93 90 87 86 90
50 41 46 54 50 46 55 47 45 48 51 53 34 52 40 29 31 30 28 40 39 46 59 74 76 79 79 82 86 84 82 78 74 70 75 73 70 78 84 83 90 89 86 90
54 52 53 49 43 46 53 48 52 52 57 51 45 45 40 36 31 27 41 52 66 74 72 77 75 78 82 84 85 86 85 83 76 80 76 81 82 85 89 89 93 91 95 90
43 42 47 45 40 43 44 42 47 52 50 56 45 42 46 38 26 30 41 65 77 82 79 77 80 85 87 87 87 90 87 91 84 80 82 82 86 92 92 93 92 96 97 92
46 47 42 39 44 46 46 49 75 65 68 57 47 50 43 38 33 33 33 56 80 82 84 91 92 86 86 87 90 85 86 93 91 88 90 90 89 92 90 90 91 90 91 97
60 56 47 39 38 49 53 50 80 78 69 68 55 60 44 38 44 52 56 59 83 87 90 90 91 86 86 87 90 85 87 94 94 93 96 93 91 93 91 90 92 88 88 91
62 63 43 40 34 37 52 61 45 57 62 64 65 46 36 49 41 66 69 84 86 89 92 93 87 85 85 85 87 88 88 93 92 93 94 94 90 91 92 89 88 89 87 90
62 73 47 39 40 40 41 38 66 61 85 69 54 46 40 36 34 44 79 85 88 88 93 89 87 86 84 85 88 87 89 89 92 90 89 89 87 86 87 90 91 89 87 89
50 65 65 49 48 50 48 50 51 52 54 53 48 41 34 32 34 44 58 82 86 89 89 90 87 86 85 86 85 88 91 90 93 94 92 91 93 90 91 93 94 89 92 92
66 57 81 67 44 43 45 45 46 78 67 56 45 41 33 44 58 67 79 84 83 86 87 88 88 89 88 86 85 87 90 90 91 91 90 93 91 91 94 93 90 92 94 96
56 85 90 81 58 67 82 76 66 57 52 55 54 46 39 52 66 76 82 84 85 85 94 88 93 91 82 80 84 84 88 90 88 87 86 92 91 94 94 91 95 93 94 96
60 91 91 82 83 96 97 98 95 74 68 60 53 43 38 43 47 62 79 82 82 84 91 90 93 88 83 82 81 84 90 88 88 87 88 94 88 88 88 88 94 92 94 94
68 83 74 65 58 94 88 79 93 93 66 78 68 62 50 44 42 39 54 80 86 88 89 87 88 87 85 85 82 84 89 89 85 86 89 87 81 80 78 82 87 92 94 95
79 87 68 73 56 51 61 72 72 80 58 50 55 55 42 42 37 41 51 77 82 84 85 83 81 84 90 87 82 85 89 89 82 82 84 81 78 77 76 76 81 88 92 94
81 78 91 81 59 54 62 49 48 53 42 34 48 46 34 39 44 38 34 66 73 74 78 82 79 79 85 82 78 84 86 84 83 79 78 78 78 79 77 76 78 81 86 89
81 88 88 85 64 78 43 34 31 50 59 42 35 36 44 49 45 40 35 41 52 64 74 77 77 77 84 80 79 78 82 84 81 78 78 76 75 77 76 78 81 82 84 88
78 82 96 93 72 55 39 30 24 34 44 47 46 44 48 47 48 42 39 38 39 41 44 65 75 75 82 83 79 80 83 83 80 79 77 74 73 76 77 80 82 80 81 82
78 84 90 93 89 65 31 43 40 39 69 52 42 40 42 48 51 50 42 40 41 40 52 74 78 79 82 82 80 81 84 83 82 80 75 72 72 76 79 79 82 82 82 85
95 96 94 92 87 62 44 39 43 44 54 49 40 38 40 49 46 44 47 43 42 45 70 77 81 83 81 82 81 82 82 83 78 75 73 73 75 77 75 77 76 77 77 77
76 92 92 91 94 77 44 49 41 40 52 46 41 42 46 49 52 53 49 50 50 52 80 81 85 84 80 80 78 81 82 77 75 76 76 76 76 75 73 76 76 73 74 74
77 78 86 75 62 48 46 45 49 48 43 42 43 47 49 56 53 56 56 51 51 52 74 80 84 84 83 79 74 80 78 77 78 78 78 75 76 74 73 73 74 73 70 71
65 57 62 70 54 56 52 54 45 48 46 41 45 48 51 57 55 51 53 55 55 52 80 81 86 86 90 80 74 73 76 76 78 79 76 76 80 78 73 71 67 68 68 68
54 60 62 69 53 53 50 50 47 42 43 47 47 46 55 48 51 51 53 56 54 54 76 81 85 84 85 81 78 77 76 76 79 77 75 76 77 75 74 70 70 66 59 61
62 65 60 46 47 40 31 34 39 43 39 36 44 47 45 49 49 49 52 55 54 56 79 82 82 84 82 81 80 80 75 74 77 78 75 76 75 73 72 71 71 70 68 68

GFSCGP_sfc_rhum_162.txt.gz
RH
32 32 34 25 25 23 23 23 22 19 22 28 23 21 17 16 19 20 18 16 14 14 13 15 24 30 35 39 42 40 41 39 43 42 52 72 82 77 83 78 69 76 75 77
37 37 24 23 29 32 29 30 27 23 22 27 25 25 20 18 20 19 18 15 14 13 14 20 28 36 38 37 42 45 46 48 49 47 48 50 55 70 74 81 67 68 70 80
28 23 26 30 35 35 32 33 28 26 25 26 27 31 20 20 18 19 18 18 16 16 15 24 34 40 43 41 48 46 49 51 51 53 54 60 60 64 89 77 63 61 72 78
33 24 31 39 37 31 37 26 32 36 37 36 27 30 22 24 22 18 17 18 19 20 21 25 41 46 47 51 56 55 56 54 55 54 55 58 54 56 56 59 65 64 61 71
31 40 34 36 30 32 32 34 37 38 38 35 34 35 19 28 24 18 22 28 35 33 28 36 45 51 52 59 60 60 62 63 62 59 57 55 55 53 56 66 74 73 77 78
31 24 31 28 27 28 32 38 40 41 39 45 28 31 20 27 22 18 20 32 43 45 38 43 49 53 61 63 65 73 72 70 64 63 64 64 65 64 64 69 82 89 90 87
27 29 29 28 34 35 39 45 56 56 58 44 33 36 26 25 28 22 22 26 46 47 47 55 61 61 64 67 78 78 78 81 68 66 70 70 72 81 77 80 88 89 88 90
31 30 25 28 32 33 42 40 63 83 55 58 44 48 30 29 30 31 35 37 53 56 58 70 63 62 63 65 79 78 80 86 82 87 87 82 80 83 80 79 82 82 86 85
42 34 21 27 27 28 37 49 33 49 52 55 42 32 27 33 28 39 40 52 62 64 79 78 62 61 63 66 78 78 78 82 85 87 83 86 83 78 74 76 73 71 70 72
37 44 27 28 30 31 31 30 56 68 84 76 40 35 32 35 31 30 41 58 64 80 82 65 62 62 61 63 75 78 74 79 84 83 79 75 76 68 70 72 79 79 80 78
62 62 40 35 36 34 43 50 41 46 49 44 41 40 27 30 37 51 51 61 66 76 75 65 63 62 62 63 65 74 75 80 83 82 78 79 78 78 78 79 82 80 80 81
46 96 71 43 31 37 54 67 41 52 51 45 38 34 24 35 51 60 63 64 64 69 75 63 63 63 64 64 62 66 71 70 79 84 84 87 85 81 82 82 80 75 78 86
36 44 66 35 30 58 96 97 81 89 66 49 48 33 36 44 48 58 62 58 59 64 76 62 67 65 60 58 57 58 69 71 75 79 70 78 83 85 88 86 85 84 87 90
54 53 66 57 53 88 98 99 100 94 90 55 38 40 42 38 38 35 47 59 55 58 68 62 76 68 56 54 52 56 63 68 77 76 74 85 81 81 81 79 88 88 87 96
48 58 37 38 42 48 67 60 71 98 88 83 85 60 36 32 34 35 37 51 59 59 59 63 76 74 55 55 52 55 67 71 75 75 79 80 77 74 75 80 85 86 93 93
49 63 46 53 35 36 44 38 38 51 88 78 68 71 41 29 30 30 31 42 52 56 58 61 73 73 60 54 54 60 70 73 74 73 74 76 75 72 74 80 83 88 93 96
56 61 56 54 29 32 41 30 33 33 34 60 48 41 36 31 30 37 36 34 36 43 52 59 63 69 69 56 52 56 69 72 70 72 70 72 72 69 72 76 80 87 92 94
67 63 66 67 39 71 35 22 25 31 27 57 58 35 34 30 39 38 32 33 34 34 37 46 52 59 70 55 52 52 63 73 72 72 71 70 70 72 73 76 83 85 86 90
50 62 82 74 53 34 31 25 25 28 25 31 49 38 27 35 36 39 32 32 34 34 32 36 35 49 62 58 53 57 63 72 71 73 70 70 70 74 76 79 82 82 83 83
51 60 76 62 81 74 27 20 26 27 29 41 38 34 30 34 34 31 36 36 36 36 37 49 40 46 60 60 53 61 65 72 72 71 69 67 65 72 76 78 78 77 76 74
75 96 91 70 72 51 26 28 27 30 41 35 28 26 27 37 39 40 37 38 38 39 40 57 55 54 64 61 57 60 64 71 67 68 68 68 67 68 66 71 69 70 68 64
52 83 87 80 81 69 26 31 30 25 35 30 28 28 34 36 40 40 37 38 40 44 43 62 63 62 65 62 57 58 62 62 67 69 71 68 67 62 58 63 62 59 60 60
51 50 54 88 50 33 33 26 26 29 25 28 26 32 29 34 37 38 39 36 37 41 42 59 67 72 70 65 57 59 58 64 71 72 73 70 67 56 58 60 63 60 56 57
36 36 50 59 44 39 34 29 29 33 32 25 25 26 23 22 34 36 35 34 37 39 41 54 69 76 78 69 60 56 60 63 70 73 72 68 66 59 56 56 55 56 55 53
51 47 44 42 35 34 31 32 28 28 32 32 27 25 24 23 24 30 32 34 35 40 39 51 64 76 79 72 63 56 63 65 71 71 70 67 67 58 57 55 55 53 45 49
44 43 45 39 29 32 26 21 22 27 26 25 27 24 23 25 26 25 30 34 35 38 37 47 60 69 76 76 67 62 62 64 70 72 72 68 63 59 58 59 60 70 67 69

GFSCGP_sfc_rhum_165.txt.gz
RH
28 30 31 26 21 20 20 21 21 18 13 17 21 22 18 15 14 14 14 11 11 11 11 12 14 15 20 23 26 30 35 32 35 38 45 65 67 64 63 69 71 63 59 58
25 36 26 22 21 22 23 25 25 20 17 18 21 22 18 17 17 16 14 12 12 10 10 11 13 17 22 26 31 34 35 37 40 39 38 39 46 52 54 58 69 61 60 73
25 23 21 23 24 26 30 30 28 25 21 20 22 25 21 15 14 15 14 14 13 13 11 11 15 22 28 28 33 36 39 40 42 44 45 52 50 56 61 63 70 59 55 67
24 21 24 23 26 25 35 24 25 27 31 34 20 33 22 16 15 14 14 14 15 16 15 13 19 26 31 31 37 38 40 43 43 48 49 53 54 58 55 58 62 58 52 57
26 26 31 30 24 24 30 24 27 31 32 31 29 32 23 16 16 15 14 22 23 19 18 17 22 31 34 38 46 46 48 50 51 52 52 52 54 48 49 53 60 61 62 59
26 21 23 25 24 22 23 29 33 35 37 44 27 29 26 20 17 16 16 21 30 32 26 20 30 36 42 50 52 55 55 57 57 58 58 58 58 56 54 59 62 68 79 81
20 21 21 22 30 26 28 34 55 53 54 48 23 32 27 18 20 22 18 21 32 35 31 36 43 48 54 58 64 60 66 63 58 57 58 58 60 60 63 59 69 80 87 89
30 29 17 13 23 30 29 35 54 79 49 47 35 48 33 20 23 25 24 27 35 41 39 47 52 54 57 61 68 68 71 72 67 73 76 74 81 80 74 78 75 75 72 72
34 26 16 19 19 27 32 43 33 44 36 47 42 30 24 22 22 28 29 40 43 47 53 55 53 53 55 68 73 73 70 74 72 76 79 80 79 73 70 71 68 67 63 67
38 56 25 20 17 22 29 27 51 60 95 69 34 27 27 28 25 35 37 49 52 62 74 58 55 54 52 65 73 74 72 73 75 76 71 72 66 61 62 62 68 71 75 74
29 49 38 30 32 26 24 36 36 58 59 44 36 24 18 23 31 43 49 54 58 77 71 56 54 53 55 75 72 77 75 74 72 74 77 76 75 67 67 68 71 70 70 73
26 36 39 33 25 24 30 66 82 99 64 49 36 25 21 27 45 48 56 58 58 72 60 56 55 53 57 69 73 69 68 64 68 73 77 78 75 73 77 78 75 74 78 82
29 31 45 28 19 19 63 94 89 80 96 84 58 30 22 35 40 41 51 56 56 62 61 55 53 53 54 58 60 63 59 62 62 70 74 75 73 77 83 81 80 77 78 85
45 49 59 59 42 44 69 98 99 88 90 95 95 85 38 33 42 40 37 46 52 57 60 55 57 52 49 48 49 58 58 60 65 62 64 75 76 77 80 78 80 87 87 94
35 51 35 30 27 28 31 31 68 90 93 84 79 94 79 42 32 46 45 40 48 54 58 57 66 58 48 46 44 56 58 62 65 64 73 77 72 72 73 78 81 88 91 91
32 51 39 41 28 24 28 24 26 43 53 92 73 73 42 32 29 28 44 40 36 46 51 57 64 62 50 46 45 54 56 61 63 66 73 75 71 73 79 81 87 90 95 93
49 54 54 55 27 27 35 23 20 22 24 31 64 49 48 34 35 35 39 37 34 35 40 50 57 64 59 47 46 55 56 59 64 65 68 73 70 71 75 80 86 91 98 94
55 63 65 68 40 69 32 20 18 18 20 21 25 46 56 32 32 32 33 34 33 34 35 40 47 57 60 50 47 50 52 60 61 63 68 69 65 70 75 82 86 89 93 96
40 58 90 83 53 33 24 19 25 24 26 20 20 33 40 34 35 32 32 34 36 36 35 34 35 41 54 57 49 54 56 61 64 67 67 67 68 73 80 86 86 85 88 88
34 42 70 66 77 60 23 30 16 19 31 17 20 29 35 37 51 36 36 34 37 38 40 42 47 33 50 57 51 57 59 63 67 67 66 66 68 74 81 84 87 81 78 78
67 78 90 74 86 38 20 30 20 31 32 21 26 28 28 42 40 40 32 33 34 40 42 52 52 40 50 54 53 60 60 63 63 63 64 66 68 73 75 77 75 73 69 65
50 72 69 72 91 72 23 28 28 32 30 30 26 25 28 32 36 32 33 34 34 40 43 52 60 52 55 58 55 59 63 58 63 67 66 68 65 64 66 70 69 64 64 62
78 46 57 67 44 35 44 45 26 22 23 26 24 28 23 20 24 32 33 32 31 35 40 49 60 65 63 63 58 58 59 62 66 70 69 67 62 54 56 60 63 61 58 60
32 32 52 47 33 31 34 31 31 26 22 20 19 19 20 19 18 19 26 29 30 32 38 46 60 73 75 68 61 55 59 61 66 70 68 66 60 57 56 56 56 57 56 54
37 39 45 48 33 28 27 30 26 25 25 26 27 25 23 21 21 20 20 24 28 31 36 39 53 70 76 76 67 57 64 62 68 69 68 66 62 55 56 54 55 53 46 50
33 39 46 56 32 52 29 27 22 23 23 24 26 23 23 21 21 21 22 20 27 31 32 35 45 59 73 76 70 64 64 63 66 70 69 66 62 56 56 59 60 78 75 76

GFSCGP_sfc_rhum_168.txt.gz
RH
35 39 42 34 31 29 27 27 29 25 20 22 24 23 22 21 22 20 21 19 16 14 13 15 19 23 30 33 38 49 57 54 67 73 86 95 95 89 87 89 83 85 82 74
37 43 32 26 26 28 28 29 31 27 22 21 24 26 24 21 21 20 19 19 18 17 15 15 21 23 31 33 40 51 54 55 59 64 67 82 82 84 84 86 90 85 81 82
32 28 22 28 32 34 31 30 32 33 27 25 29 33 28 20 18 18 18 17 17 18 16 15 18 21 31 34 44 48 54 55 61 60 68 73 73 79 84 85 91 85 80 88
30 25 25 26 30 26 34 26 28 31 35 46 29 47 31 22 21 20 20 20 28 26 22 23 23 32 32 42 51 51 56 56 60 64 70 75 81 86 86 86 86 86 78 87
36 30 35 36 31 26 30 29 32 34 41 42 40 45 32 26 26 22 18 34 33 35 32 27 35 38 44 53 57 58 62 64 68 70 70 77 78 79 78 77 86 84 79 85
27 22 24 26 24 26 27 30 34 42 49 62 43 43 39 30 26 23 23 32 37 38 37 31 41 44 62 63 67 68 69 72 73 74 72 75 77 76 77 80 87 95 95 94
24 21 20 18 29 28 33 42 70 71 78 71 36 40 32 29 31 30 30 32 42 40 43 47 57 60 70 72 75 72 77 79 77 79 79 78 80 80 78 81 92 93 88 88
36 33 21 24 26 29 29 37 68 86 74 71 38 63 44 31 30 32 34 33 47 48 43 60 65 71 70 79 79 80 81 82 86 89 90 93 92 94 94 92 92 80 81 84
43 32 23 24 21 25 33 40 43 60 50 67 57 38 30 34 29 34 36 47 52 54 61 67 66 70 79 75 75 75 73 75 80 80 81 77 85 84 82 83 83 85 82 80
35 48 25 25 21 24 29 25 49 73 99 94 60 46 38 30 30 45 45 57 62 76 70 66 66 66 79 77 80 79 80 81 81 80 81 84 86 74 74 74 84 85 90 83
32 37 34 27 25 27 29 42 47 84 77 89 74 58 26 41 44 56 60 60 85 85 77 73 64 69 77 83 84 84 81 81 86 87 82 90 83 78 81 85 87 86 83 80
31 42 44 33 22 19 20 31 81 97 85 91 98 74 68 76 57 64 68 71 82 80 76 69 66 81 80 80 84 83 80 79 82 82 83 84 81 77 83 93 85 76 85 88
36 41 71 46 26 22 33 74 94 94 99 94 95 78 70 84 72 48 75 76 76 75 72 66 65 64 75 79 76 75 74 77 75 75 87 85 84 85 83 88 88 88 86 91
43 55 67 85 68 57 63 56 68 72 94 96 83 83 83 93 88 77 54 64 67 68 64 64 64 59 66 66 66 67 69 72 75 77 81 83 86 88 88 90 94 93 93 95
40 54 49 40 34 40 42 35 36 70 65 80 72 79 86 88 89 69 49 51 54 64 64 66 68 65 57 62 61 62 65 72 72 75 79 87 81 80 85 89 93 94 96 96
36 54 45 55 42 39 36 28 25 26 31 60 59 72 58 79 80 63 60 57 57 51 65 68 70 68 66 54 61 66 68 71 71 80 82 79 79 82 87 94 93 96 97 96
49 55 62 74 44 42 53 32 27 25 24 26 45 42 63 80 80 64 42 57 64 49 44 73 74 71 69 59 60 67 64 69 72 72 77 77 78 82 85 88 92 97 98 94
54 62 66 84 68 92 42 26 25 26 25 25 21 24 30 53 66 58 39 43 57 55 41 41 55 71 70 66 58 60 61 71 71 74 75 74 76 82 85 88 93 97 96 97
43 58 86 92 74 50 39 29 27 32 45 25 26 26 51 49 54 48 40 39 44 52 50 46 45 52 67 68 59 59 66 69 70 75 74 74 78 85 87 91 93 95 94 94
76 53 72 88 93 81 35 29 27 34 47 25 21 24 57 56 74 58 41 36 43 44 47 49 55 58 63 68 60 61 70 71 74 73 72 73 79 85 90 89 89 88 86 86
83 90 96 85 91 75 38 34 38 68 59 34 25 33 42 53 50 47 37 37 38 47 47 54 65 64 62 66 60 65 70 73 72 69 72 76 80 84 86 86 85 81 81 79
60 86 90 89 92 75 57 58 84 64 47 43 38 36 40 46 44 40 40 40 40 50 50 62 70 68 65 65 61 66 70 68 70 70 74 78 79 77 78 82 82 73 69 70
69 71 83 96 64 41 36 58 54 43 41 43 39 37 26 29 37 44 39 37 38 40 47 60 74 76 72 70 60 67 68 70 74 72 74 75 74 75 73 75 76 72 69 75
43 41 58 52 48 40 41 43 38 39 38 34 27 28 27 25 26 27 26 31 35 38 46 53 76 79 79 73 64 64 69 70 74 73 72 69 68 71 67 67 67 72 82 81
50 44 45 46 40 62 47 44 35 35 34 34 32 34 36 32 30 29 28 27 30 36 42 44 70 83 82 80 73 65 68 70 75 71 70 72 66 68 63 73 75 76 73 71
47 49 45 53 34 70 64 45 38 42 38 31 32 35 36 31 32 32 30 29 28 35 40 41 47 79 82 82 83 70 69 70 74 73 71 69 67 74 71 78 82 82 78 71

GFSCGP_sfc_rhum_171.txt.gz
RH
47 57 62 52 48 42 41 42 42 33 27 31 34 33 29 24 25 26 26 26 24 22 17 17 21 24 37 44 53 59 67 74 83 92 97 96 96 95 95 95 88 86 88 84
57 63 46 38 38 39 42 44 44 36 30 30 32 32 30 28 26 22 23 24 21 20 19 18 22 30 36 50 56 64 62 72 81 89 97 95 96 95 93 95 91 90 89 87
52 46 35 39 41 41 41 46 42 38 36 36 38 37 35 30 27 23 20 18 20 22 20 19 21 32 38 44 54 59 60 63 70 71 82 86 86 94 92 97 97 94 89 89
44 34 32 32 37 36 45 34 35 40 46 54 38 56 38 35 29 23 22 22 24 31 29 25 24 35 35 38 52 56 58 61 65 73 77 79 85 92 93 91 93 91 86 93
46 39 38 41 38 33 40 38 39 41 51 58 49 61 43 36 33 28 24 34 40 40 34 31 46 38 48 53 59 62 66 67 73 74 78 83 86 87 89 93 89 91 90 91
34 29 31 32 27 30 32 37 43 48 57 71 49 58 46 47 34 28 39 44 42 41 37 43 63 67 72 71 73 72 76 80 78 77 78 82 83 85 91 94 96 98 98 97
36 30 27 22 34 32 31 45 82 81 86 66 47 58 46 38 33 26 36 47 48 44 46 64 76 73 76 80 82 79 81 85 80 78 82 85 86 86 86 92 98 96 96 96
57 50 30 21 25 29 35 38 77 96 93 83 53 76 50 36 33 36 36 51 53 48 59 75 78 86 83 87 88 88 88 91 92 95 96 95 93 97 96 95 96 96 95 92
54 52 29 24 20 22 33 49 35 73 87 98 85 64 43 52 50 39 46 57 65 60 74 81 81 87 86 88 89 85 88 90 92 92 92 92 93 92 94 92 93 93 87 86
39 54 32 28 19 22 26 23 61 82 98 88 79 63 81 90 90 83 71 66 78 84 84 81 87 88 83 81 80 79 80 82 84 84 80 75 79 82 83 83 86 87 87 85
37 46 40 32 32 35 32 32 33 72 92 99 83 85 78 87 82 82 87 89 93 88 85 82 91 86 85 84 87 88 86 86 90 88 87 85 86 84 83 84 85 84 87 83
37 54 64 51 34 27 27 35 68 95 88 88 96 82 85 86 79 76 74 72 87 85 83 86 87 84 85 88 88 87 85 89 89 87 86 86 84 85 94 94 87 83 89 90
42 60 92 52 40 44 65 52 47 67 88 95 98 87 54 60 66 73 75 64 62 82 78 80 87 84 83 84 84 84 86 84 80 77 83 82 85 88 89 91 91 87 90 94
48 69 80 91 71 73 73 64 61 60 72 86 82 73 54 63 71 76 81 71 70 74 79 76 82 79 81 80 79 79 84 78 83 94 85 89 86 89 92 93 94 94 94 96
56 85 69 51 46 50 55 56 52 64 56 67 54 66 61 57 72 77 86 77 69 74 82 79 75 74 75 80 72 73 77 78 80 82 85 88 87 86 93 95 94 96 96 96
47 67 58 65 47 48 55 48 44 42 42 40 35 40 53 51 81 81 81 79 70 74 68 84 87 74 69 71 72 72 75 79 75 82 86 82 85 89 91 94 96 96 97 98
63 69 80 79 56 64 76 45 42 38 31 35 43 30 26 58 75 70 77 82 72 82 75 65 90 78 67 63 65 74 77 75 78 81 80 82 84 88 90 92 95 96 98 96
66 73 76 96 84 99 46 35 33 37 33 30 29 32 29 31 54 70 79 78 72 75 82 70 68 91 79 64 65 68 72 75 78 84 80 80 84 89 89 94 97 97 97 97
47 69 97 97 96 62 52 41 38 42 46 40 43 36 31 41 69 72 63 66 64 75 86 82 55 54 89 66 63 69 73 74 76 81 78 81 85 89 92 97 98 97 96 96
80 64 94 95 96 91 44 38 36 46 65 69 60 52 59 63 86 72 58 39 45 61 74 76 60 64 67 71 62 70 75 76 79 77 79 83 86 89 93 95 95 95 92 89
93 98 98 95 95 86 55 60 54 82 88 68 58 62 62 68 63 51 42 44 43 43 54 65 75 75 68 69 65 72 74 78 74 75 82 85 87 89 90 90 91 88 84 80
72 87 97 97 99 92 60 49 55 55 64 54 54 58 65 52 54 46 44 42 48 48 52 64 84 80 76 65 69 74 76 73 74 78 85 88 88 84 84 89 88 81 75 75
78 74 88 91 84 58 47 52 46 62 46 53 54 40 46 43 42 40 39 36 38 42 48 63 81 92 83 72 67 74 75 73 78 82 87 87 84 84 83 85 81 77 75 78
61 68 74 66 54 49 45 54 48 44 44 54 39 33 36 33 31 31 31 31 34 37 41 50 78 85 91 79 65 71 72 72 77 82 85 83 84 82 77 76 73 74 77 81
71 60 63 62 50 52 56 49 54 45 46 48 42 35 40 37 32 29 31 31 30 34 41 43 63 84 86 81 72 70 72 72 77 78 80 79 80 76 76 80 74 72 75 77
62 54 68 72 46 59 61 46 48 37 40 39 44 39 40 41 36 32 30 31 32 31 38 43 43 82 86 87 77 75 73 71 74 76 75 74 74 73 75 78 82 78 78 76